FW1023 Weather Reports


time (UTC)temp
C
wind
direction
speed
KPH
gust
KPH
rain 1hr
cm
rain 24hr
cm
rain mn
cm
humidity
%
barometer
mb
20260508154938 13 248 6.4 24.1 0.00 0.10 0.00 52 1006.5
20260508154429 13 225 8.0 24.1 0.00 0.10 0.00 52 1006.2
20260508153918 13 270 4.8 22.5 0.00 0.10 0.00 53 1006.3
20260508152911 13 248 8.0 27.4 0.00 0.10 0.00 53 1006.4
20260508151839 13 45 4.8 22.5 0.00 0.10 0.00 53 1006.4
20260508151328 12 225 6.4 22.5 0.00 0.10 0.00 54 1006.4
20260508150831 13 203 6.4 24.1 0.00 0.10 0.00 55 1006.6
20260508145758 12 248 9.7 20.9 0.00 0.10 0.00 55 1006.6
20260508145247 12 270 4.8 17.7 0.00 0.10 0.00 54 1006.5
20260508144738 12 225 4.8 25.7 0.00 0.10 0.00 54 1006.6
20260508144227 12 225 6.4 25.7 0.00 0.10 0.00 56 1006.6
20260508143717 12 248 8.0 24.1 0.00 0.10 0.00 56 1006.5
20260508142146 12 90 4.8 17.7 0.00 0.10 0.00 56 1006.6
20260508141638 12 225 4.8 17.7 0.00 0.10 0.00 57 1006.9
20260508141139 11 135 6.4 27.4 0.00 0.10 0.00 57 1006.7
20260508140616 11 270 9.7 27.4 0.00 0.10 0.00 59 1006.6
20260508140119 10 203 6.4 27.4 0.00 0.10 0.00 59 1006.8
20260508135048 10 293 6.4 17.7 0.00 0.10 0.00 59 1006.8
20260508134536 10 68 6.4 24.1 0.00 0.10 0.00 60 1006.9
20260508134026 10 180 9.7 25.7 0.00 0.13 0.00 59 1006.9
20260508133515 10 293 4.8 25.7 0.00 0.13 0.00 58 1006.7
20260508133011 10 270 6.4 24.1 0.00 0.13 0.00 59 1006.6
20260508132455 10 270 9.7 27.4 0.00 0.13 0.00 60 1007.0
20260508131435 10 225 12.9 27.4 0.00 0.15 0.00 60 1006.6
20260508130924 10 293 14.5 27.4 0.00 0.15 0.00 61 1006.5
20260508130414 10 225 6.4 17.7 0.00 0.18 0.00 60 1006.5
20260508125354 10 315 6.4 24.1 0.00 0.18 0.00 60 1006.3
20260508124333 9 225 3.2 20.9 0.00 0.20 0.00 61 1006.2
20260508123314 9 135 8.0 22.5 0.00 0.20 0.00 62 1006.3
20260508122810 9 135 8.0 25.7 0.00 0.20 0.00 62 1006.2
20260508122254 9 225 11.3 25.7 0.00 0.20 0.00 61 1006.1
20260508121233 9 180 6.4 22.5 0.00 0.20 0.00 61 1005.9
20260508120723 9 225 8.0 22.5 0.00 0.20 0.00 62 1006.0
20260508120213 8 248 3.2 22.5 0.00 0.20 0.00 61 1005.7
20260508115703 8 225 4.8 27.4 0.00 0.20 0.00 62 1005.8
20260508115153 8 270 9.7 27.4 0.00 0.28 0.00 62 1005.8
20260508113621 8 270 6.4 24.1 0.00 0.48 0.00 63 1005.5
20260508113112 8 90 9.7 17.7 0.00 0.51 0.00 63 1005.4
20260508112602 8 203 6.4 17.7 0.00 0.51 0.00 64 1005.3
20260508112051 8 248 9.7 12.9 0.00 0.51 0.00 63 1005.3
20260508111542 8 293 4.8 12.9 0.00 0.53 0.00 64 1005.1
20260508111031 8 270 6.4 14.5 0.00 0.56 0.00 64 1005.1
20260508110522 8 158 6.4 17.7 0.00 0.61 0.00 63 1005.0
20260508110012 8 248 3.2 17.7 0.00 0.61 0.00 63 1004.8
20260508105502 7 248 6.4 14.5 0.00 0.61 0.00 64 1004.9
20260508104950 7 270 6.4 17.7 0.00 0.64 0.00 64 1004.8
20260508104441 7 248 3.2 20.9 0.00 0.66 0.00 63 1004.9
20260508103420 7 225 4.8 17.7 0.00 1.14 0.00 62 1004.5
20260508102910 7 270 6.4 22.5 0.00 1.14 0.00 62 1004.3
20260508102400 8 23 8.0 22.5 0.00 1.17 0.00 62 1004.2
20260508101849 8 203 6.4 22.5 0.00 1.17 0.00 62 1004.2
20260508101341 8 113 3.2 22.5 0.00 1.19 0.00 63 1004.1
20260508100829 8 225 6.4 17.7 0.00 1.27 0.00 63 1004.1
20260508100320 8 225 3.2 17.7 0.00 1.30 0.00 64 1003.8
20260508095809 8 248 4.8 17.7 0.00 1.30 0.00 64 1003.8
20260508095259 8 203 6.4 17.7 0.00 1.30 0.00 65 1003.7
20260508094750 8 248 4.8 17.7 0.00 1.32 0.00 65 1003.6
20260508093728 8 248 4.8 14.5 0.00 1.45 0.00 67 1003.7
20260508093219 8 203 6.4 14.5 0.00 1.47 0.00 67 1003.4
20260508092708 8 248 4.8 14.5 0.00 1.47 0.00 69 1003.7
20260508092158 8 293 4.8 12.9 0.00 1.47 0.00 68 1003.6
20260508091648 8 225 1.6 14.5 0.00 1.47 0.00 70 1003.3
20260508091138 8 225 6.4 14.5 0.00 1.50 0.00 71 1003.5
20260508090628 8 248 6.4 14.5 0.00 1.52 0.00 71 1003.3
20260508090118 8 248 4.8 14.5 0.00 1.52 0.00 72 1003.5
20260508085609 8 270 6.4 17.7 0.00 1.52 0.00 73 1003.5
20260508085058 9 248 6.4 17.7 0.00 1.55 0.00 74 1003.4
20260508084037 9 135 3.2 17.7 0.00 1.63 0.00 75 1003.3
20260508083017 9 315 3.2 17.7 0.00 1.68 0.00 76 1003.2
20260508082507 9 23 3.2 20.9 0.00 1.70 0.00 76 1003.1
20260508081957 9 225 6.4 20.9 0.00 1.70 0.00 76 1003.3
20260508081446 9 203 6.4 17.7 0.00 1.78 0.00 77 1003.1
20260508080936 9 270 3.2 17.7 0.00 1.80 0.00 78 1003.1
20260508080426 10 90 3.2 17.7 0.00 1.80 0.00 78 1003.3
20260508075916 20 0 3.2 14.5 0.00 1.83 0.00 85 1003.3
20260508075406 10 270 3.2 12.9 0.00 1.83 0.00 78 1003.2
20260508074345 10 158 4.8 14.5 0.00 1.88 0.00 77 1003.2
20260508073840 10 180 3.2 17.7 0.00 1.88 0.00 77 1003.4
20260508072815 10 248 8.0 17.7 0.00 1.88 0.00 77 1003.4
20260508071754 10 293 3.2 17.7 0.00 1.88 0.00 77 1003.5
20260508071244 10 225 3.2 17.7 0.00 1.88 0.00 77 1003.3
20260508065715 10 270 8.0 17.7 0.00 1.88 0.00 76 1003.7
20260508065204 10 113 1.6 14.5 0.00 1.88 0.00 77 1003.4
20260508064144 10 248 4.8 14.5 0.00 1.88 0.00 77 1003.6
20260508063124 10 270 3.2 17.7 0.00 1.88 0.00 77 1003.3
20260508062627 10 248 4.8 14.5 0.00 1.88 0.00 77 1003.4
20260508062103 10 293 3.2 11.3 0.00 1.88 0.00 77 1003.2
20260508061553 10 90 3.2 17.7 0.00 1.88 0.00 76 1003.4
20260508061043 10 203 6.4 20.9 0.00 1.88 0.00 75 1003.3
20260508060532 10 270 9.7 20.9 0.00 1.88 0.00 74 1003.1
20260508060023 10 225 9.7 22.5 0.00 1.88 0.00 75 1003.3
20260508055513 10 225 12.9 22.5 0.00 1.88 0.00 75 1003.5
20260508055002 10 270 6.4 24.1 0.00 1.88 0.00 76 1003.3
20260508054452 10 225 9.7 24.1 0.00 1.88 0.00 76 1003.7
20260508052922 11 248 8.0 20.9 0.00 1.88 0.00 74 1003.6
20260508052412 11 113 9.7 22.5 0.00 1.88 0.00 74 1003.7
20260508051351 11 225 6.4 17.7 0.00 1.88 0.00 76 1003.1
20260508050842 11 203 6.4 17.7 0.00 1.88 0.00 76 1003.7
20260508050332 11 293 9.7 17.7 0.00 1.88 0.00 76 1003.4
20260508045821 11 248 3.2 17.7 0.00 1.88 0.00 76 1003.5
20260508045317 11 203 4.8 17.7 0.00 1.88 0.00 75 1003.3
20260508044801 11 203 3.2 20.9 0.00 1.88 0.00 75 1003.2
20260508044251 11 248 6.4 20.9 0.00 1.88 0.00 74 1003.4
20260508043740 11 180 9.7 20.9 0.00 1.88 0.00 73 1003.4
20260508043231 11 248 11.3 24.1 0.00 1.88 0.00 72 1003.5
20260508042210 11 45 11.3 32.2 0.00 1.88 0.00 70 1003.7
20260508041150 12 248 14.5 33.8 0.00 1.88 0.00 70 1003.6
20260508040639 12 203 16.1 37.0 0.00 1.88 0.00 69 1003.3
20260508040129 12 315 17.7 37.0 0.00 1.88 0.00 70 1003.5
20260508035619 12 270 17.7 37.0 0.00 1.88 0.00 69 1003.3
20260508035109 12 270 9.7 37.0 0.00 1.88 0.00 72 1003.5
20260508034049 12 113 9.7 25.7 0.00 1.88 0.00 73 1003.2
20260508033538 12 293 12.9 29.0 0.00 1.88 0.00 73 1003.3
20260508032518 12 203 4.8 25.7 0.00 1.88 0.00 73 1003.2
20260508032008 12 225 6.4 25.7 0.00 1.88 0.00 74 1002.9
20260508031458 12 225 11.3 25.7 0.00 1.88 0.00 73 1003.0
20260508030437 13 225 8.0 17.7 0.00 1.88 0.00 73 1002.8
20260508025928 13 203 4.8 17.7 0.00 1.88 1.88 72 1002.8
20260508025417 13 248 6.4 38.6 0.00 1.88 1.88 72 1003.2
20260508024907 13 225 9.7 38.6 0.00 1.88 1.88 72 1003.1
20260508023337 13 203 8.0 17.7 0.00 1.88 1.88 74 1002.9
20260508022829 13 248 6.4 17.7 0.00 1.88 1.88 75 1002.9
20260508021806 13 270 3.2 17.7 0.00 1.88 1.88 76 1002.8
20260508021256 13 135 6.4 20.9 0.00 1.88 1.88 75 1002.9
20260508020747 13 225 6.4 20.9 0.00 1.88 1.88 74 1002.5
20260508020302 13 248 6.4 17.7 0.00 1.88 1.88 74 1002.5
20260508015215 13 315 8.0 14.5 0.00 1.88 1.88 75 1002.5
20260508014705 13 203 6.4 17.7 0.00 1.88 1.88 76 1002.3
20260508014156 13 248 3.2 17.7 0.00 1.88 1.88 77 1002.0
20260508013646 13 203 8.0 14.5 0.00 1.88 1.88 77 1001.9
20260508013135 13 203 6.4 12.9 0.00 1.88 1.88 78 1002.2
20260508012626 13 225 6.4 11.3 0.00 1.88 1.88 79 1001.9
20260508012115 13 203 3.2 11.3 0.00 1.88 1.88 79 1001.8
20260508011606 13 270 6.4 9.7 0.00 1.88 1.88 79 1002.1
20260508011055 13 248 3.2 11.3 0.00 1.88 1.88 79 1002.1
20260508010545 13 203 3.2 11.3 0.00 1.88 1.88 79 1002.0
20260508010034 13 270 4.8 12.9 0.00 1.88 1.88 78 1001.8
20260508005524 13 293 4.8 12.9 0.00 1.88 1.88 79 1002.3
20260508005019 13 248 4.8 11.3 0.00 1.88 1.88 79 1002.1
20260508004504 13 90 1.6 12.9 0.00 1.88 1.88 80 1002.3
20260508004007 12 248 4.8 12.9 0.00 1.88 1.88 80 1002.5
20260508003444 12 293 3.2 6.4 0.00 1.88 1.88 80 1003.1
20260508001913 12 23 1.6 6.4 0.00 1.88 1.88 84 1002.9
20260508001405 12 225 3.2 6.4 0.00 1.88 1.88 84 1002.6
20260508000343 12 293 3.2 9.7 0.00 1.88 1.88 84 1002.4
20260507235833 12 45 1.6 6.4 0.00 1.88 1.88 84 1002.7
20260507235323 12 203 0.0 6.4 0.00 1.88 1.88 84 1003.0
20260507234813 12 158 0.0 6.4 0.00 1.88 1.88 84 1002.8
20260507234302 12 23 0.0 3.2 0.00 1.88 1.88 83 1002.8
20260507233753 12 23 0.0 3.2 0.00 1.88 1.88 83 1002.8
20260507233242 12 0 0.0 6.4 0.00 1.88 1.88 83 1002.8
20260507232731 12 45 0.0 6.4 0.00 1.88 1.88 82 1002.7
20260507232222 12 135 1.6 3.2 0.00 1.88 1.88 82 1002.6
20260507231712 12 68 0.0 3.2 0.00 1.88 1.88 83 1002.5
20260507231201 12 315 0.0 6.4 0.00 1.88 1.88 83 1002.9
20260507230651 12 248 0.0 6.4 0.00 1.88 1.88 83 1003.0
20260507225121 12 68 0.0 6.4 0.00 1.88 1.88 83 1003.2
20260507224611 13 0 0.0 6.4 0.00 1.88 1.88 83 1003.6
20260507224102 13 68 0.0 3.2 0.00 1.88 1.88 83 1003.9
20260507223550 12 270 0.0 3.2 0.00 1.88 1.88 83 1003.4
20260507223041 12 270 0.0 3.2 0.00 1.88 1.88 83 1003.8
20260507222021 13 270 0.0 6.4 0.00 1.88 1.88 82 1003.3
20260507221523 13 338 0.0 3.2 0.00 1.88 1.88 82 1003.6
20260507220449 13 293 0.0 3.2 0.00 1.88 1.88 83 1004.2
20260507215940 13 293 0.0 3.2 0.00 1.88 1.88 82 1004.1
20260507215429 13 23 0.0 0.0 0.00 1.88 1.88 83 1004.2
20260507214920 13 23 0.0 3.2 0.00 1.88 1.88 84 1003.9
20260507213858 13 68 0.0 0.0 0.00 1.88 1.88 85 1003.7
20260507213348 13 293 0.0 0.0 0.00 1.88 1.88 83 1003.4
20260507212839 13 338 0.0 3.2 0.00 1.88 1.88 84 1003.3
20260507212328 13 23 0.0 3.2 0.00 1.88 1.88 83 1003.4
20260507211819 13 23 1.6 3.2 0.00 1.88 1.88 83 1003.6
20260507211308 13 293 0.0 3.2 0.00 1.88 1.88 83 1003.7
20260507210249 13 0 0.0 6.4 0.00 1.88 1.88 81 1003.7
20260507205738 13 270 1.6 9.7 0.00 1.88 1.88 78 1004.1
20260507205232 13 68 1.6 12.9 0.03 1.88 1.88 79 1003.5
20260507204718 13 315 6.4 14.5 0.03 1.88 1.88 78 1002.6
20260507203148 13 158 3.2 12.9 0.05 1.88 1.88 83 1001.7
20260507202637 13 225 3.2 12.9 0.05 1.88 1.88 83 1001.2
20260507202127 13 248 3.2 12.9 0.10 1.88 1.88 84 1001.0
20260507201617 13 270 6.4 12.9 0.10 1.88 1.88 83 1001.9
20260507201106 13 203 3.2 9.7 0.10 1.88 1.88 83 1001.8
20260507195536 13 203 3.2 17.7 0.10 1.88 1.88 86 1002.8
20260507195026 13 248 1.6 11.3 0.05 1.85 1.85 85 1001.7
20260507194515 13 270 4.8 11.3 0.05 1.85 1.85 86 1000.5
20260507194007 13 225 3.2 9.7 0.05 1.85 1.85 85 999.6
20260507192945 13 248 3.2 9.7 0.03 1.83 1.83 85 999.6
20260507192436 14 225 3.2 11.3 0.03 1.83 1.83 84 999.4
20260507191925 14 225 3.2 11.3 0.00 1.80 1.80 82 999.4
20260507191414 15 248 4.8 11.3 0.00 1.80 1.80 80 1000.2
20260507185844 15 248 6.4 22.5 0.00 1.80 1.80 77 1001.2
20260507185347 15 225 12.9 24.1 0.00 1.80 1.80 76 1000.9
20260507184824 15 68 9.7 24.1 0.00 1.80 1.80 80 1000.7
20260507184314 15 225 6.4 12.9 0.00 1.80 1.80 83 1000.6
20260507183804 15 248 3.2 11.3 0.00 1.80 1.80 84 1000.0
20260507183254 15 203 4.8 9.7 0.00 1.80 1.80 84 1000.1
20260507182744 15 248 3.2 11.3 0.00 1.80 1.80 84 1000.5
20260507182230 15 225 4.8 11.3 0.00 1.80 1.80 84 1000.7
20260507181720 15 225 3.2 11.3 0.00 1.80 1.80 84 1000.2
20260507181210 15 225 4.8 12.9 0.00 1.80 1.80 83 1001.4
20260507180158 16 248 3.2 14.5 0.00 1.80 1.80 81 1002.7
20260507175642 16 248 6.4 17.7 0.00 1.80 1.80 79 1002.4
20260507175132 16 248 6.4 17.7 0.00 1.80 1.80 78 1001.8
20260507174622 16 270 6.4 22.5 0.00 1.80 1.80 78 1001.6
20260507174112 16 225 8.0 22.5 0.00 1.80 1.80 78 1001.5
20260507173604 16 248 6.4 24.1 0.00 1.80 1.80 79 1001.6
20260507173052 16 293 8.0 24.1 0.00 1.80 1.80 78 1001.6
20260507172542 17 203 6.4 22.5 0.00 1.80 1.80 77 1001.5
20260507172032 17 248 12.9 22.5 0.00 1.80 1.80 76 1001.5
20260507171521 17 248 8.0 20.9 0.00 1.80 1.80 78 1001.1
20260507171011 17 135 6.4 27.4 0.00 1.80 1.80 79 1001.3
20260507170501 18 248 9.7 27.4 0.00 1.80 1.80 81 1001.6
20260507165951 18 270 12.9 17.7 0.00 1.80 1.80 77 1001.3
20260507165442 18 225 4.8 17.7 0.00 1.80 1.80 78 1001.3
20260507164931 18 180 11.3 20.9 0.00 1.80 1.80 77 1001.4
20260507164421 18 315 6.4 20.9 0.00 1.80 1.80 80 1002.2
20260507163910 18 248 6.4 14.5 0.00 1.80 1.80 85 1002.1
20260507163401 18 225 3.2 22.5 0.00 1.80 1.80 86 1002.4
20260507162851 18 225 6.4 22.5 0.00 1.80 1.80 86 1001.8
20260507162345 18 248 1.6 17.7 0.00 1.80 1.80 87 1001.7
20260507161320 18 158 6.4 20.9 0.00 1.80 1.80 86 1001.4
20260507160811 18 270 8.0 20.9 0.00 1.80 1.80 85 1001.0
20260507160300 18 293 6.4 14.5 0.00 1.80 1.80 85 1001.2
20260507155239 18 180 3.2 6.4 0.00 1.80 1.80 85 1000.7